Location: Caltech
(34.1382°N, 118.1253°W)
Time: 18:36:15
(UTC-07:00)

Cosmos 44 Rocket - Visible Passes

Search period start: 31 May 2016 00:00
Search period end: 10 June 2016 00:00
Orbit: 636 x 754 km, 65.1° (Epoch: 31 May)

Date Brightness Start Highest point End Pass type
(mag) Time Alt. Az. Time Alt. Az. Time Alt. Az.
04 Jun 5.7 05:07:40 10° SSE 05:11:28 22° ESE 05:15:22 10° ENE visible
06 Jun 5.2 04:49:21 10° S 04:53:42 29° ESE 04:58:08 10° NE visible
07 Jun 6.2 03:54:01 10° ESE 03:54:36 10° ESE 03:55:10 10° E visible
08 Jun 4.6 04:31:15 10° S 04:35:57 39° ESE 04:40:46 10° NE visible
09 Jun 5.8 03:34:04 10° SE 03:36:46 14° ESE 03:39:31 10° ENE visible
